Zurück zum Katalog

FREGAT DEB

LostUNKNOWN
NORAD 45897·DEBRIS·🇷🇺 Russia

Gestartet Jul 18, 2011 von Baikonur Cosmodrome

Loading…

Nächste Überflüge (nächste 24 Stunden)

TLE

VeraltetSource: Space-Track

Epoche: Jan 31, 2021, 20:50 UTC

1 45897U 11037DS  21031.86872989  .00279877  00000-0  19322+0 0  9995
2 45897  51.3119 287.5919 2196646  37.9246 335.7542 10.38573281 20471

Verfolge FREGAT DEB in Echtzeit mit AllMySat

Download on the App Store